Location: Nebula Knoll Observatory
(43.6666°N, 71.0000°W)
Time: 23:25:42
(UTC-04:00)

Cosmos 1782 - Visible Passes

Search period start: 24 June 2017 00:00
Search period end: 04 July 2017 00:00
Orbit: 540 x 553 km, 82.5° (Epoch: 24 June)

Date Brightness Start Highest point End Pass type
(mag) Time Alt. Az. Time Alt. Az. Time Alt. Az.
24 Jun 5.5 00:16:04 10° NE 00:17:00 11° ENE 00:17:54 10° E visible
24 Jun 2.8 01:49:48 10° NNW 01:53:50 66° W 01:54:05 64° WSW visible
25 Jun 5.4 00:10:21 10° NE 00:11:41 11° ENE 00:12:59 10° E visible
25 Jun 2.9 01:44:28 10° NNW 01:48:28 62° W 01:48:37 61° WSW visible
26 Jun 5.4 00:04:44 10° NE 00:06:21 12° ENE 00:07:31 11° E visible
26 Jun 3.0 01:39:07 10° NNW 01:43:07 57° W 01:43:09 57° W visible
26 Jun 5.3 23:59:10 10° NE 00:01:02 13° ENE 00:02:04 12° E visible
27 Jun 3.1 01:33:47 10° NNW 01:37:42 53° W 01:37:42 53° W visible
27 Jun 5.2 23:53:39 10° NE 23:55:42 14° ENE 23:56:38 13° E visible
28 Jun 3.2 01:28:27 10° NNW 01:32:17 50° W 01:32:17 50° W visible
28 Jun 5.1 23:48:08 10° NE 23:50:23 14° ENE 23:51:13 14° E visible
29 Jun 3.4 01:23:07 10° NNW 01:26:51 46° W 01:26:51 46° W visible
29 Jun 5.0 23:42:38 10° NNE 23:45:03 15° ENE 23:45:49 15° E visible
30 Jun 3.5 01:17:48 10° NNW 01:21:27 43° W 01:21:27 43° W visible
30 Jun 5.0 23:37:10 10° NNE 23:39:44 16° ENE 23:40:25 15° E visible
01 Jul 3.6 01:12:28 10° NNW 01:16:04 40° W 01:16:04 40° W visible
01 Jul 4.9 23:31:42 10° NNE 23:34:24 17° ENE 23:35:02 16° E visible
02 Jul 3.7 01:07:09 10° NNW 01:10:40 38° W 01:10:40 38° W visible
02 Jul 4.8 23:26:15 10° NNE 23:29:04 18° ENE 23:29:40 17° E visible
03 Jul 3.8 01:01:50 10° NNW 01:05:18 35° W 01:05:18 35° W visible
03 Jul 4.7 23:20:48 10° NNE 23:23:44 19° ENE 23:24:18 18° E visible
